Location: Peach Mountain Observatory
(42.3967°N, 83.9367°W)
Time: 07:03:23
(UTC-04:00)

deb Explorer IX - Pass Details

Date: 23 January 2020
Orbit: 547 x 1100 km, 38.8° (Epoch: 06 April)

Event Time Altitude Azimuth Distance (km) Brightness Sun altitude
Rises 01:48:11 0° 267° (W) 3,908 - -63.8°
Reaches altitude 10° 01:51:00 10° 264° (W) 2,951 - -63.5°
Maximum altitude 01:58:13 66° 185° (S) 1,155 - -62.7°
Drops below altitude 10° 02:04:57 10° 105° (ESE) 2,751 - -61.9°
Sets 02:07:29 0° 102° (ESE) 3,629 - -61.6°
